Вернуться в каталог

YUNYAO-1 22

АктивенПогодаSSO
NORAD 61242·PAYLOAD·🇨🇳 China
Это название спутника еще не подтверждено официальными источниками.

Запущен Sep 24, 2024 с Jiuquan Satellite Launch Center

Loading…

Ближайшие Пролёты (ближайшие 24 часа)

TLE

СвежийSource: Space-Track

Эпоха: Sep 14, 2026, 23:38 UTC

1 61242U 24174E   26257.98477632  .00005285  00000-0  19312-3 0  9990
2 61242  97.4471 268.8980 0010919 277.7198  82.2801 15.28481680109555

Отслеживайте YUNYAO-1 22 в реальном времени с AllMySat

Download on the App Store